date,time(arrival),lon,lat,elon,elat,HP-Tx(arrival),HP-Ty(arrival),Cons-Type,date(emission),time(emission),HP-Tx(emission),HP-Ty(emission)
2023-03-13,00:00:00,9.83139324407637,-22.267334168942867,144.03136518953892,2.6758490293986226,nan,nan,Kent(MLE),2023-03-12,07:45:44.104243,nan,nan
2023-03-13,01:00:00,9.719916638583904,-22.294505597270188,144.84717972628277,2.7509584790968185,nan,nan,Kent(MLE),2023-03-12,08:41:38.372648,nan,nan
2023-03-13,02:00:00,9.605339614868903,-22.324893119516812,146.47424892802533,2.715123827445379,nan,nan,Kent(MLE),2023-03-12,09:43:20.046592,nan,nan
2023-03-13,03:00:00,9.48482610430828,-22.3583454440133,145.99355359441253,2.7650353820068467,nan,nan,Kent(MLE),2023-03-12,10:44:27.855417,nan,nan
2023-03-13,04:00:00,9.349867642059971,-22.416137975097516,146.3048330769843,2.848311623301756,nan,nan,Kent(MLE),2023-03-12,11:40:52.284208,nan,nan
2023-03-13,05:00:00,9.006636003012746,-22.32581126331215,146.68500296950123,2.726632861299162,nan,nan,Kent(MLE),2023-03-12,12:34:22.223485,nan,nan
2023-03-13,06:00:00,8.880775561644171,-22.318877208074827,149.30215585117003,2.7725290769805127,nan,nan,Kent(MLE),2023-03-12,13:30:07.566683,nan,nan
2023-03-13,07:00:00,8.75881304015879,-22.33096978422445,147.89265730496575,2.7270107388846907,nan,nan,Kent(MLE),2023-03-12,14:31:07.903360,nan,nan
2023-03-13,08:00:00,8.639226814145237,-22.355148172673523,148.67677461239867,2.770711200140036,nan,nan,Kent(MLE),2023-03-12,15:35:09.150474,nan,nan
2023-03-13,09:00:00,8.50950953711749,-22.375001029453138,149.95079207188382,2.7531897543252786,nan,nan,Kent(MLE),2023-03-12,16:39:57.202221,nan,nan
2023-03-13,10:00:00,8.36871452536976,-22.387709415720593,150.24040565262237,2.85186206819005,nan,nan,Kent(MLE),2023-03-12,17:44:12.559546,nan,nan
2023-03-13,11:00:00,8.212481870329519,-22.396817148885095,150.35532721399747,2.8868942321003392,nan,nan,Kent(MLE),2023-03-12,18:49:44.286314,nan,nan
2023-03-13,12:00:00,8.039792303390435,-22.45984414581583,151.40575022346684,2.9933951005383324,nan,nan,Kent(MLE),2023-03-12,19:49:42.911446,nan,nan
2023-03-13,13:00:00,7.719579227417626,-22.307649671843777,151.8493378749377,2.7438961270322895,nan,nan,Kent(MLE),2023-03-12,20:37:45.727741,nan,nan
2023-03-13,14:00:00,7.591462425350305,-22.311445107777573,153.6278985568449,2.7661251733181302,nan,nan,Kent(MLE),2023-03-12,20:54:04.162534,nan,nan
2023-03-13,15:00:00,7.432618960793821,-22.308397013185317,152.737969746737,2.716792928330977,nan,nan,Kent(MLE),2023-03-12,22:02:49.291230,nan,nan
2023-03-13,16:00:00,7.344960680906133,-22.333670221688042,154.47514413996475,2.7856365170867785,nan,nan,Kent(MLE),2023-03-12,23:20:27.664073,nan,nan
2023-03-13,17:00:00,7.176080178711359,-22.331530475339527,155.2717316946746,2.7864599290421506,nan,nan,Kent(MLE),2023-03-13,00:35:19.600044,nan,nan
2023-03-13,18:00:00,7.040181817255116,-22.324648451471873,154.1253223487468,2.8307607558727477,nan,nan,Kent(MLE),2023-03-13,01:51:04.164256,nan,nan
2023-03-13,19:00:00,6.91723276075866,-22.331006904687126,155.93500746205152,2.804794986456938,nan,nan,Kent(MLE),2023-03-13,03:02:30.220706,nan,nan
2023-03-13,20:00:00,6.814050499292722,-22.32495948760223,156.9955544013289,2.863086174688742,nan,nan,Kent(MLE),2023-03-13,04:08:54.930936,nan,nan
2023-03-13,21:00:00,6.708203386075477,-22.343451043399412,157.11157951681557,2.8292051156013582,nan,nan,Kent(MLE),2023-03-13,05:07:05.589541,nan,nan
2023-03-13,22:00:00,6.626777221040611,-22.35286258894967,155.78727967054087,2.9133146730269956,nan,nan,Kent(MLE),2023-03-13,05:51:13.591925,nan,nan
2023-03-13,23:00:00,6.513077939434518,-22.373053742762046,156.6475435132109,2.860609224469195,nan,nan,Kent(MLE),2023-03-13,06:35:04.877912,nan,nan
2023-03-14,00:00:00,6.428633850027683,-22.392090747643792,157.282120814303,2.9312995853861143,nan,nan,Kent(MLE),2023-03-13,07:23:40.498838,nan,nan
2023-03-14,01:00:00,6.311167266163173,-22.397034830279672,156.6579538741456,2.999276869037563,nan,nan,Kent(MLE),2023-03-13,08:15:46.743759,nan,nan
2023-03-14,02:00:00,6.234827997308202,-22.428156097738796,157.35134513139343,2.982214939844767,nan,nan,Kent(MLE),2023-03-13,09:16:00.233833,nan,nan
2023-03-14,03:00:00,6.107780068438964,-22.4564572420956,157.28560679330832,2.9991778797717847,nan,nan,Kent(MLE),2023-03-13,10:29:04.932911,nan,nan
2023-03-14,04:00:00,4.780889516548322,-22.63117160938393,162.07841496711777,3.204525072108214,nan,nan,Kent(MLE),2023-03-13,11:27:44.371928,nan,nan
2023-03-14,05:00:00,4.346118197972619,-22.681420444808445,165.4908150706954,3.262468549354679,nan,nan,Kent(MLE),2023-03-13,12:24:41.262890,nan,nan
2023-03-14,06:00:00,3.7120678882550417,-22.764756941507652,166.52829325275135,3.3245736682491924,nan,nan,Kent(MLE),2023-03-13,13:25:56.128213,nan,nan
2023-03-14,07:00:00,2.854183596130015,-22.88287936502771,167.40993701087183,3.426690270412369,nan,nan,Kent(MLE),2023-03-13,14:29:08.979759,nan,nan
2023-03-14,08:00:00,2.606593065479977,-22.93516899236518,167.68504070236565,3.479559971838872,nan,nan,Kent(MLE),2023-03-13,15:33:38.661832,nan,nan
2023-03-14,09:00:00,2.3831961237665418,-22.97573174641176,168.45130652327322,3.5391609920442293,nan,nan,Kent(MLE),2023-03-13,17:01:47.819130,nan,nan
2023-03-14,10:00:00,2.178394681371263,-23.006494785828718,168.56893366582395,3.5654338616822256,nan,nan,Kent(MLE),2023-03-13,18:24:55.357296,nan,nan
2023-03-14,11:00:00,1.9585292119670576,-23.053926187179425,168.90203651060247,3.592470166814758,nan,nan,Kent(MLE),2023-03-13,19:29:43.594594,nan,nan
2023-03-14,12:00:00,1.7449633741205677,-23.12104796951813,169.62435742987142,3.7201924582983525,nan,nan,Kent(MLE),2023-03-13,20:40:08.395853,nan,nan
2023-03-14,13:00:00,1.2551274573265174,-23.03860400813787,170.23841799950307,3.565832493948994,nan,nan,Kent(MLE),2023-03-13,21:57:23.294093,nan,nan
2023-03-14,14:00:00,1.0762257876630326,-23.084547387901207,170.49821216027806,3.6167800467060696,nan,nan,Kent(MLE),2023-03-13,22:49:26.504205,nan,nan
2023-03-14,15:00:00,0.6703926644745176,-23.006636288740527,171.41123336139074,3.461150422475316,nan,nan,Kent(MLE),2023-03-13,23:22:20.147913,nan,nan
2023-03-14,16:00:00,0.4954408534565258,-23.029899487168752,171.54353571925884,3.5213501108104834,nan,nan,Kent(MLE),2023-03-14,00:51:35.040164,nan,nan
2023-03-14,17:00:00,0.28409485275671015,-23.058286684305234,171.77508308570688,3.5437468420120783,nan,nan,Kent(MLE),2023-03-14,02:47:30.705265,nan,nan
2023-03-14,18:00:00,359.8247463303314,-22.981567590007334,172.44014580586642,3.5042455376461485,nan,nan,Kent(MLE),2023-03-14,04:05:45.760623,nan,nan
2023-03-14,19:00:00,359.175079451727,-22.68396135512264,172.97116562786516,3.0307320582657185,nan,nan,Kent(MLE),2023-03-14,05:00:40.823852,nan,nan
2023-03-14,20:00:00,358.7629689214267,-22.509595124217107,172.41086913917707,2.7518128739388,nan,nan,Kent(MLE),2023-03-14,05:54:49.719442,nan,nan
2023-03-14,21:00:00,358.28694804922475,-22.396157484325297,170.67514571677123,2.6662520545600894,nan,nan,Kent(MLE),2023-03-14,06:47:38.093535,nan,nan
2023-03-14,22:00:00,357.9716878354524,-22.117724469846642,151.39271510206427,2.0686414866418494,nan,nan,Kent(MLE),2023-03-14,07:40:57.211959,nan,nan
2023-03-14,23:00:00,357.7831516994267,-22.062705860546455,151.34534626171012,2.0692596133296526,nan,nan,Kent(MLE),2023-03-14,08:41:25.145162,nan,nan
2023-03-15,00:00:00,357.6046400468507,-22.03979958701888,140.17655806707742,2.058085545917528,nan,nan,Kent(MLE),2023-03-14,09:42:17.204124,nan,nan
2023-03-15,01:00:00,357.36456469017696,-22.003402008387702,135.75217366900912,2.070242431622332,nan,nan,Kent(MLE),2023-03-14,10:44:43.253505,nan,nan
2023-03-15,02:00:00,357.04295330126524,-21.964615594966382,125.72850917789064,2.0788718460526177,nan,nan,Kent(MLE),2023-03-14,11:49:20.531302,nan,nan
2023-03-15,03:00:00,356.77877683517113,-21.90377866790196,125.65805705168235,2.0908158397282732,nan,nan,Kent(MLE),2023-03-14,12:54:16.894972,nan,nan
2023-03-15,04:00:00,356.614039275933,-21.860651786996822,125.63465419019084,2.0994171708677514,nan,nan,Kent(MLE),2023-03-14,14:00:08.254157,nan,nan
2023-03-15,05:00:00,356.4827363217826,-21.83795253185733,125.62762536994823,2.1082086869622074,nan,nan,Kent(MLE),2023-03-14,15:07:29.506471,nan,nan
2023-03-15,06:00:00,356.32815748171856,-21.821704275255698,125.61063884320568,2.0883287907329104,nan,nan,Kent(MLE),2023-03-14,16:15:02.165621,nan,nan
2023-03-15,07:00:00,356.2164731144925,-21.81312803255722,125.61297147142396,2.091760864379706,nan,nan,Kent(MLE),2023-03-14,17:22:46.363591,nan,nan
2023-03-15,08:00:00,356.1176635711613,-21.806054057460702,125.62093803088058,2.0955489286158064,nan,nan,Kent(MLE),2023-03-14,18:29:53.908759,nan,nan
2023-03-15,09:00:00,356.03028623837497,-21.800700708584156,125.63398926251497,2.0993231487793316,nan,nan,Kent(MLE),2023-03-14,19:36:01.777690,nan,nan
2023-03-15,10:00:00,355.95380491584075,-21.797431354448303,125.65192684009659,2.102768493639994,nan,nan,Kent(MLE),2023-03-14,20:42:39.348060,nan,nan
2023-03-15,11:00:00,355.8876898829614,-21.795608948031738,125.67437587179546,2.1061212737669717,nan,nan,Kent(MLE),2023-03-14,21:49:47.268000,nan,nan
2023-03-15,12:00:00,355.84418317396944,-21.785444940318296,125.70662211178426,2.1124087679588652,nan,nan,Kent(MLE),2023-03-14,22:57:26.107535,nan,nan
2023-03-15,13:00:00,355.79794543481495,-21.78611465790226,125.73773984231849,2.115604302507037,nan,nan,Kent(MLE),2023-03-15,00:05:36.348086,nan,nan
2023-03-15,14:00:00,355.761637717146,-21.78821702609693,125.77328950621099,2.118458077499254,nan,nan,Kent(MLE),2023-03-15,01:14:18.371441,nan,nan
2023-03-15,15:00:00,355.7385202605922,-21.78902463113324,125.81442221538346,2.122752866418899,nan,nan,Kent(MLE),2023-03-15,02:23:32.449149,nan,nan
2023-03-15,16:00:00,355.7229907827348,-21.793823254497553,125.8591140122885,2.124690573196445,nan,nan,Kent(MLE),2023-03-15,03:33:18.731659,nan,nan
2023-03-15,17:00:00,355.72706643810596,-21.788705047475048,125.91312416579272,2.131297249018365,nan,nan,Kent(MLE),2023-03-15,04:43:37.237934,nan,nan
2023-03-15,18:00:00,355.73326745486736,-21.796442521968544,125.96858978541026,2.1323445797781,nan,nan,Kent(MLE),2023-03-15,05:54:27.845445,nan,nan
2023-03-15,19:00:00,355.75450137271076,-21.801440237483494,126.03105639569823,2.1356493147345894,nan,nan,Kent(MLE),2023-03-15,07:05:50.280853,nan,nan
2023-03-15,20:00:00,355.78526735635234,-21.812195338440276,126.09782235005122,2.1359341769668854,nan,nan,Kent(MLE),2023-03-15,08:17:44.111599,nan,nan
2023-03-15,21:00:00,355.83085170485907,-21.824469598784574,126.17075508715172,2.1360743365609074,nan,nan,Kent(MLE),2023-03-15,09:30:08.738439,nan,nan
2023-03-15,22:00:00,355.89318967792076,-21.838585847655725,126.2508955941897,2.1356525786176768,nan,nan,Kent(MLE),2023-03-15,10:42:45.330654,nan,nan
2023-03-15,23:00:00,355.9928788688423,-21.84507388452803,126.34685966845707,2.1665120847279065,nan,nan,Kent(MLE),2023-03-15,11:53:40.771542,nan,nan
2023-03-16,00:00:00,356.11358081392365,-21.868136785942593,126.4522010228599,2.16253347264799,nan,nan,Kent(MLE),2023-03-15,13:04:47.506984,nan,nan
2023-03-16,01:00:00,356.26480884111436,-21.89743374821662,126.5659214205307,2.157934240268815,nan,nan,Kent(MLE),2023-03-15,14:16:10.471132,nan,nan
2023-03-16,02:00:00,356.5609982468156,-21.956799085528687,131.8458276829181,2.1410711099702215,nan,nan,Kent(MLE),2023-03-15,15:29:39.481684,nan,nan
2023-03-16,03:00:00,356.90277148989156,-22.012906793363896,136.7258721388274,2.132276707150413,nan,nan,Kent(MLE),2023-03-15,16:43:27.334602,nan,nan
2023-03-16,04:00:00,357.2116814919991,-22.041330518172295,145.17154466392947,2.124953063981401,nan,nan,Kent(MLE),2023-03-15,18:00:13.144118,nan,nan
2023-03-16,05:00:00,357.44483224368076,-22.052060251112295,165.27407484789012,2.1216735521053827,nan,nan,Kent(MLE),2023-03-15,19:18:21.432136,nan,nan
2023-03-16,06:00:00,357.63340997560175,-22.049973224463713,165.36582772253118,2.1251648565000845,nan,nan,Kent(MLE),2023-03-15,20:43:22.176291,nan,nan
2023-03-16,07:00:00,357.794033052809,-22.044106477013386,175.24823483026188,2.1309988631532346,nan,nan,Kent(MLE),2023-03-15,22:06:49.746925,nan,nan
2023-03-16,08:00:00,357.9829429777806,-22.041614330312385,175.36301344616945,2.153982907451604,nan,nan,Kent(MLE),2023-03-15,23:14:51.123914,nan,nan
2023-03-16,09:00:00,358.16998227690004,-22.05249889019777,174.82167054834494,2.141692899099349,nan,nan,Kent(MLE),2023-03-15,23:36:04.623105,nan,nan
2023-03-16,10:00:00,358.3583342760801,-22.064723441976337,174.82718226832978,2.1246921484798684,nan,nan,Kent(MLE),2023-03-16,01:22:24.715410,nan,nan
2023-03-16,11:00:00,358.5545468990623,-22.058298974703064,174.88201324542192,2.1025477258013354,nan,nan,Kent(MLE),2023-03-16,02:22:38.406292,nan,nan
2023-03-16,12:00:00,358.72191113824874,-22.031675272017576,174.98916958034675,2.079463842705653,nan,nan,Kent(MLE),2023-03-16,03:33:11.588144,nan,nan
2023-03-16,13:00:00,358.99633250961256,-22.012094278880774,175.11479129313153,2.0472531231507474,nan,nan,Kent(MLE),2023-03-16,04:25:00.619792,nan,nan
2023-03-16,14:00:00,1.6937327131006745,-18.20701650653194,170.66694555541707,9.297902467648743,nan,nan,Kent(MLE),2023-03-16,05:39:18.270132,nan,nan
2023-03-16,15:00:00,3.4160988046386436,-18.073237296298288,148.87936869558618,9.21094074165159,nan,nan,Kent(MLE),2023-03-16,06:59:09.103668,nan,nan
2023-03-16,16:00:00,3.4307535243629026,-18.095057978646732,147.12783009417726,9.209457848621897,nan,nan,Kent(MLE),2023-03-16,08:08:43.383832,nan,nan
2023-03-16,17:00:00,3.508366736447718,-18.138319926431176,142.10112081264765,9.271549332090151,nan,nan,Kent(MLE),2023-03-16,09:35:45.254478,nan,nan
2023-03-16,18:00:00,3.60413679030994,-18.1857112468638,128.48521985599746,7.901991492315986,nan,nan,Kent(ME),2023-03-16,11:05:14.496662,nan,nan
2023-03-16,19:00:00,3.7795460776065153,-18.259919030500292,117.77079104275849,7.7614952366651035,nan,nan,Kent(ME),2023-03-16,12:12:00.074851,nan,nan
2023-03-16,20:00:00,3.957439032552869,-18.3268070086279,106.34991352436496,7.731179243479108,nan,nan,Kent(ME),2023-03-16,13:10:07.302305,nan,nan
2023-03-16,21:00:00,4.153758260286809,-18.349657852637254,90.57315134117263,7.766196774540363,nan,nan,Kent(ME),2023-03-16,14:41:10.903332,nan,nan
2023-03-16,22:00:00,4.382107766368577,-18.370366434463026,75.84513319210252,7.6909194454616046,nan,nan,Kent(ME),2023-03-16,15:53:37.318282,nan,nan
2023-03-16,23:00:00,4.580299999753546,-18.37220850997273,55.79452405467975,7.621743226996503,nan,nan,Kent(ME),2023-03-16,17:02:54.675283,nan,nan
2023-03-17,00:00:00,4.712236566158146,-22.283845848518816,132.16790957442717,9.324854138967542,-891.4008622996043,-367.6995413289459,Median,2023-03-16,18:21:07.163276,nan,nan
2023-03-17,01:00:00,4.936372903788229,-22.25392683264785,131.90286545691492,9.308195501819128,-892.0817238173913,-365.7591784903581,Median,2023-03-16,19:34:34.906322,nan,nan
2023-03-17,02:00:00,5.215203537146598,-22.239476698636793,131.63701862102698,9.289075315093866,-892.5195218962617,-363.95229706043,Median,2023-03-16,20:42:26.381945,nan,nan
2023-03-17,03:00:00,5.490194101964963,-22.21651139003035,131.38355512445307,9.282406782990408,-892.824734011665,-362.0205881031793,Median,2023-03-16,21:42:15.040540,nan,nan
2023-03-17,04:00:00,5.775897297078292,-22.210070942940856,131.1222855196696,9.285110818432507,-892.8387276474386,-360.3238082729637,Median,2023-03-16,23:19:29.518630,-892.3334687452298,-365.24238015130385
2023-03-17,05:00:00,6.052973904524363,-22.28768084988479,130.85758877897496,9.291475371191584,-892.1313918640371,-359.94541337754686,Median,2023-03-17,00:15:43.209812,-892.1918882806785,-364.9262180716467
2023-03-17,06:00:00,6.581215120346457,-22.36295441209508,130.57405237072427,9.297535377968831,-891.0972674656659,-359.05452618211274,Median,2023-03-17,01:25:02.903372,-891.9217419172637,-363.8664625799098
2023-03-17,07:00:00,6.86655791782478,-22.38540151961761,130.29870812600737,9.31689671106574,-890.3060403710697,-357.81084928057777,Median,2023-03-17,01:58:12.085123,-891.7448718580417,-363.0886346516876
2023-03-17,08:00:00,6.441957275368526,-18.51547872211942,3.9550232725800947,7.859472953052357,-912.872128010029,-296.8211974563271,Kent(ME),2023-03-17,03:19:57.615282,-914.3968014079146,-301.85035187647316
2023-03-17,09:00:00,6.748469031796673,-18.601970703961122,1.8908779933351416,7.720580191793288,-911.500458044,-296.52145175468235,Kent(ME),2023-03-17,04:37:14.230748,-913.5560745943803,-301.2327842848852
2023-03-17,10:00:00,7.0309009185526,-18.74512763318993,4.069803254841169,7.781172661417229,-909.6534928267356,-297.1722867604566,Kent(ME),2023-03-17,05:51:30.067282,-912.1628810639959,-301.61816141186847
2023-03-17,11:00:00,7.569584784026961,-19.2395604679988,31.087833360525266,9.940033157129886,-905.2665642192587,-302.9035043678865,Kent(MLE),2023-03-17,07:08:30.217457,-908.2813559200149,-307.023818249737
2023-03-17,12:00:00,9.658287371526777,-21.181022419109695,92.83581050497794,9.500628121353607,-888.6753898833413,-328.4736616814457,Kent(MLE),2023-03-17,08:30:06.599963,-892.8094269270077,-332.13752203473234
2023-03-17,13:00:00,16.417212555543056,-23.98180789567963,85.45801519796838,10.341841024168076,-846.5934159529861,-358.6272413707326,Kent(MLE),2023-03-17,09:46:23.292834,-853.7789552647155,-361.84381936691716
2023-03-17,14:00:00,20.82179252897336,-24.451101082526733,63.296708790660276,10.147283125107249,-819.2771277169231,-357.0996205091298,Kent(MLE),2023-03-17,10:20:06.960842,-829.8952017351985,-360.6380512065262
2023-03-17,15:00:00,22.999681258626623,-24.69716327981943,59.703564647383025,9.997093131204105,-801.7349460201804,-356.20712533757745,Kent(MLE),2023-03-17,11:15:53.240089,-813.9219229097944,-359.73731175152204
2023-03-17,16:00:00,26.530668332568695,-25.04083139135278,36.50125243830365,10.066224466548652,-772.35147667001,-354.7005603012258,Kent(MLE),2023-03-17,11:50:39.600862,-788.0697412905283,-358.48940635134664
2023-03-17,17:00:00,27.767806726110834,-24.481920288021204,34.059317194377655,9.688520634195022,-762.6360665445682,-343.04812451946316,Kent(MLE),2023-03-17,11:11:41.744825,-785.7041373199318,-348.29982952395915
2023-03-17,18:00:00,28.75102715854438,-24.059678654495062,33.890508028217006,9.428521129116362,-753.2166214771569,-333.946014546621,Kent(MLE),2023-03-17,12:26:44.664113,-776.5146257528104,-338.90822562954327
2023-03-17,19:00:00,29.479211470359072,-23.791675975013202,40.276895595215656,9.491481237251602,-744.3756807243917,-327.68765263056747,Kent(MLE),2023-03-17,13:26:43.242580,-768.6325418495107,-332.59401238171426
2023-03-17,20:00:00,31.690880782944642,-23.856417546121936,47.080963844158966,9.973704191802966,-720.2672598459758,-324.3951781148293,Kent(MLE),2023-03-17,14:06:24.564470,-747.9617140884511,-329.44200180082544
2023-03-17,21:00:00,33.061939476728355,-23.722117566078584,57.63986075037842,10.180415085612013,-703.4863689113408,-319.3566810570197,Kent(MLE),2023-03-17,14:55:21.566837,-733.4659709155094,-324.44705599929426
2023-03-17,22:00:00,48.51141251581076,-23.929728509166903,89.10101402139824,9.892815194154732,-527.807441290468,-301.4847790157557,Kent(MLE),2023-03-17,15:42:53.387644,-569.5263177545276,-305.4779959842076
2023-03-17,23:00:00,64.28225975030571,-27.584137504617434,43.812966459479405,6.257450759878592,-297.97513445303775,-345.0854310814849,Kent(MLE),2023-03-17,16:41:13.529291,-346.0796402920969,-347.40225358195596
2023-03-18,00:00:00,65.24869241054886,-27.74327576509024,44.095166598858306,6.405666340675945,-276.1936684278771,-346.67537840462774,Kent(MLE),2023-03-17,18:03:00.478812,-321.9692683077883,-348.6972462289448
2023-03-18,01:00:00,65.35943229083415,-27.889704002875845,43.90878266437568,6.431053180475186,-266.4744181779679,-348.6100321083682,Kent(MLE),2023-03-17,19:08:48.887832,-311.6435908107087,-350.52930466038356
2023-03-18,02:00:00,65.49446787453142,-28.078423099519508,45.18413594743913,6.529693956938567,-256.29665637924336,-351.2084027331172,Kent(MLE),2023-03-17,20:15:45.625564,-300.69115387112834,-353.0177778593459
2023-03-18,03:00:00,70.52527208194591,-27.4902863197078,43.993584124981375,7.7480033144919,-176.83526978851296,-339.3674605851296,Kent(MLE),2023-03-17,21:22:36.616199,-221.85901092388667,-340.6159974354081
2023-03-18,04:00:00,92.9409983009828,-23.718511841713664,39.71482469396345,15.767199228012986,170.38454945438468,-278.7488341070454,Kent(MLE),2023-03-17,23:06:46.289869,129.4725686082493,-277.8247674793457
2023-03-18,05:00:00,99.8725009318951,-22.76044760641131,34.0149789296128,17.819579872738714,284.1830996098393,-266.8809647935429,Kent(MLE),2023-03-18,00:11:27.391860,244.9125542089172,-265.3246703170959
2023-03-18,06:00:00,100.26510120244386,-22.706492414766586,34.10432040899365,17.470400040559646,298.16221891724643,-266.60482817122255,Kent(MLE),2023-03-18,01:24:20.244719,260.8427523048549,-265.03758441667185
2023-03-18,07:00:00,100.41516213333166,-22.62222399633258,34.411303774312024,17.53043533830171,308.59425322586526,-265.70403547902083,Kent(MLE),2023-03-18,01:51:02.306990,266.8779819043266,-263.8976492018248
2023-03-18,08:00:00,100.90676859828638,-22.02828766077157,34.39354400651609,18.310919600396236,325.1477782462972,-256.7729668706574,Kent(MLE),2023-03-18,02:46:23.233963,282.8915582088443,-254.83840505408762
2023-03-18,09:00:00,101.33370888149868,-21.32138586504685,35.59974952731133,18.913403741333756,341.00814248351674,-245.96467130333835,Kent(MLE),2023-03-18,03:37:24.218551,297.59493409990466,-243.87677629057495
2023-03-18,10:00:00,102.51081306318386,-18.99557298929137,35.71711412781466,20.497757016537395,371.48669981426224,-209.16254153240706,Kent(MLE),2023-03-18,04:34:11.941330,327.51502429738406,-206.8557415712785
2023-03-18,11:00:00,104.0557653372705,-15.937041706726346,36.2506843209673,22.153131324419448,408.59436092523356,-160.29354425856332,Kent(MLE),2023-03-18,04:19:42.877782,354.3887385080111,-157.19853883644512
2023-03-18,12:00:00,104.77915437990492,-14.395419577372406,37.733339855162846,22.952319887938476,430.1733379121613,-135.76111533177968,Kent(MLE),2023-03-18,05:05:57.741747,374.25330215513003,-132.3866122075382
2023-03-18,13:00:00,105.02522562332734,-13.856930774906656,37.782508382694445,23.392615607593743,442.7229860446495,-127.5249041682721,Kent(MLE),2023-03-18,05:50:45.040639,384.97255283057194,-123.92688425804586
2023-03-18,14:00:00,105.34786383178896,-13.494916659381422,38.30534094212467,23.44022862916824,455.9646588020435,-122.3278957396219,Kent(MLE),2023-03-18,06:03:31.569861,392.13612828991677,-118.23736823280734
2023-03-18,15:00:00,108.17313494649191,-7.52832896850869,38.47469641361464,25.360222444392438,513.397292133279,-25.630473451671936,Kent(MLE),2023-03-18,07:16:46.144749,452.1920166112904,-21.09615504867312
2023-03-18,16:00:00,112.43994888941194,2.7543769366140567,38.51536104905681,25.233799949917252,583.8037972665855,141.28892309657147,Kent(MLE),2023-03-18,07:36:34.293926,520.2211070749998,146.9488689165719
2023-03-18,17:00:00,112.69143405546139,3.4292407544927035,39.316207530841794,25.585597183750668,594.0920986987829,151.47822242122376,Kent(MLE),2023-03-18,08:35:02.269395,530.9886160417841,157.26249480020053
2023-03-18,18:00:00,116.5189489059214,11.465999643560467,39.711040021494114,23.76062022144693,638.363804859528,277.27076553254415,Kent(MLE),2023-03-18,09:06:46.738791,576.6626751015372,283.88819511360754
2023-03-18,19:00:00,116.88827947787964,11.869757004150705,39.75128359320333,23.947412260094982,648.5190698600073,282.4606160880886,Kent(MLE),2023-03-18,09:55:19.830502,586.4017807614568,289.32811163089656
2023-03-18,20:00:00,117.26778227452454,12.112454029526068,40.053311344130144,23.81882717538741,658.9631350675578,285.0190640032616,Kent(MLE),2023-03-18,11:03:17.806133,598.7204888153598,291.90643710080997
2023-03-18,21:00:00,117.4682261277526,12.391289831853465,39.75913225138119,23.887263750193327,667.0287116784741,288.3927859073554,Kent(MLE),2023-03-18,11:23:56.478905,603.0253868940649,295.8567091895989
2023-03-18,22:00:00,117.82376744815787,12.70353993311553,40.102891766846156,24.203386742771844,676.6296925425753,292.05404804861854,Kent(MLE),2023-03-18,11:52:23.517401,610.0392054164563,300.02747198826603